When you browse on this site, cookies collect data to enhance your experience and personalize the content and advertising you see.
Visit our Privacy Policy to learn more. By continuing to use the site, you agree to this use of cookies and data.
  • Em Portugal
  • Lista de países
  • Para 7 dias
  • Temperatura da água
  • Mapas de satélite
  • Mapa do tempo
  • Widgets de tempo
  • user-avatar
    Iniciar Sessão

    Previsão horária em Trzebiele

    Hoje, 25 Maio, Sábado

    Tempo Temperatura Precipitação Vento Pressão Humidade
    00:00 +12°C° 0 mm 2 m/s 741 mmHg 87%
    01:00 +12°C° 0 mm 2 m/s 741 mmHg 87%
    02:00 +10°C° 0 mm 2 m/s 741 mmHg 90%
    03:00 +10°C° 0 mm 2 m/s 741 mmHg 94%
    04:00 +9°C° 0 mm 2 m/s 741 mmHg 97%
    05:00 +10°C° 0 mm 3 m/s 741 mmHg 91%
    06:00 +11°C° 0 mm 3 m/s 741 mmHg 85%
    07:00 +12°C° 0 mm 4 m/s 742 mmHg 78%
    08:00 +11°C° 0 mm 4 m/s 742 mmHg 76%
    09:00 +11°C° 0 mm 4 m/s 742 mmHg 74%
    10:00 +11°C° 0 mm 4 m/s 743 mmHg 72%
    11:00 +11°C° 0 mm 4 m/s 743 mmHg 71%
    12:00 +11°C° 0 mm 4 m/s 743 mmHg 70%
    13:00 +12°C° 0 mm 4 m/s 743 mmHg 69%
    14:00 +12°C° 0 mm 4 m/s 743 mmHg 69%
    15:00 +12°C° 0 mm 4 m/s 743 mmHg 68%
    16:00 +12°C° 0 mm 4 m/s 743 mmHg 67%
    17:00 +12°C° 0 mm 4 m/s 743 mmHg 70%
    18:00 +11°C° 0 mm 4 m/s 743 mmHg 73%
    19:00 +10°C° 0 mm 3 m/s 742 mmHg 76%
    20:00 +9°C° 0 mm 3 m/s 743 mmHg 82%
    21:00 +8°C° 0 mm 3 m/s 743 mmHg 87%
    22:00 +7°C° 0 mm 3 m/s 743 mmHg 93%
    23:00 +8°C° 0 mm 3 m/s 743 mmHg 91%

    Amanhã, 26 Maio, Domingo

    Tempo Temperatura Precipitação Vento Pressão Humidade
    00:00 +8°C° 0 mm 3 m/s 743 mmHg 90%
    01:00 +9°C° 0 mm 3 m/s 742 mmHg 89%
    02:00 +9°C° 0 mm 3 m/s 742 mmHg 90%
    03:00 +8°C° 0 mm 3 m/s 742 mmHg 92%
    04:00 +8°C° 0 mm 3 m/s 742 mmHg 93%
    05:00 +8°C° 0 mm 4 m/s 742 mmHg 87%
    06:00 +10°C° 0 mm 4 m/s 742 mmHg 82%
    07:00 +10°C° 0 mm 5 m/s 742 mmHg 76%
    08:00 +12°C° 0 mm 5 m/s 742 mmHg 71%
    09:00 +13°C° 0 mm 5 m/s 742 mmHg 67%
    10:00 +14°C° 0 mm 5 m/s 741 mmHg 62%
    11:00 +14°C° 0 mm 5 m/s 741 mmHg 62%
    12:00 +14°C° 0 mm 5 m/s 741 mmHg 63%
    13:00 +15°C° 0 mm 5 m/s 741 mmHg 63%
    14:00 +15°C° 0 mm 5 m/s 740 mmHg 64%
    15:00 +15°C° 0 mm 5 m/s 740 mmHg 65%
    16:00 +15°C° 0 mm 5 m/s 740 mmHg 66%
    17:00 +14°C° 0.2 mm 5 m/s 739 mmHg 74%
    18:00 +13°C° 0.2 mm 4 m/s 739 mmHg 82%
    19:00 +12°C° 0.2 mm 4 m/s 739 mmHg 90%
    20:00 +12°C° 0.1 mm 4 m/s 739 mmHg 91%
    21:00 +12°C° 0.1 mm 4 m/s 739 mmHg 93%
    22:00 +12°C° 0.1 mm 4 m/s 739 mmHg 94%
    23:00 +12°C° 0.2 mm 4 m/s 739 mmHg 95%

    Depois de amanhã, 27 Maio, Segunda-feira

    Tempo Temperatura Precipitação Vento Pressão Humidade
    00:00 +12°C° 0.2 mm 4 m/s 739 mmHg 96%
    01:00 +12°C° 0.2 mm 4 m/s 738 mmHg 96%
    02:00 +13°C° 0.7 mm 4 m/s 738 mmHg 95%
    03:00 +13°C° 0.7 mm 5 m/s 738 mmHg 94%
    04:00 +13°C° 0.7 mm 5 m/s 737 mmHg 93%
    05:00 +13°C° 1.3 mm 5 m/s 737 mmHg 94%
    06:00 +13°C° 1.3 mm 5 m/s 737 mmHg 94%
    07:00 +14°C° 1.3 mm 6 m/s 737 mmHg 94%
    08:00 +14°C° 0.6 mm 5 m/s 737 mmHg 94%
    09:00 +14°C° 0.6 mm 4 m/s 737 mmHg 95%
    10:00 +14°C° 0.6 mm 4 m/s 738 mmHg 95%
    11:00 +15°C° 1 mm 4 m/s 738 mmHg 92%
    12:00 +15°C° 1 mm 4 m/s 738 mmHg 88%
    13:00 +15°C° 1 mm 5 m/s 739 mmHg 85%
    14:00 +15°C° 0.1 mm 5 m/s 739 mmHg 79%
    15:00 +15°C° 0.1 mm 5 m/s 739 mmHg 74%
    16:00 +15°C° 0.1 mm 4 m/s 739 mmHg 69%
    17:00 +15°C° 0 mm 4 m/s 739 mmHg 73%
    18:00 +14°C° 0 mm 3 m/s 739 mmHg 76%
    19:00 +14°C° 0 mm 2 m/s 740 mmHg 80%
    20:00 +13°C° 0 mm 1 m/s 740 mmHg 84%
    21:00 +11°C° 0 mm 1 m/s 740 mmHg 89%
    22:00 +9°C° 0 mm 0 m/s 740 mmHg 94%
    23:00 +8°C° 0 mm 0 m/s 740 mmHg 94%

    28 Maio, Terça-feira

    Tempo Temperatura Precipitação Vento Pressão Humidade
    00:00 +8°C° 0 mm 0 m/s 740 mmHg 95%
    01:00 +9°C° 0 mm 1 m/s 740 mmHg 95%
    02:00 +9°C° 0 mm 1 m/s 740 mmHg 95%
    03:00 +9°C° 0 mm 1 m/s 740 mmHg 95%
    04:00 +9°C° 0 mm 1 m/s 739 mmHg 95%
    05:00 +11°C° 0 mm 1 m/s 740 mmHg 90%
    06:00 +12°C° 0 mm 1 m/s 740 mmHg 84%
    07:00 +13°C° 0 mm 0 m/s 740 mmHg 79%
    08:00 +13°C° 0.1 mm 0 m/s 740 mmHg 78%
    09:00 +14°C° 0.1 mm 1 m/s 740 mmHg 78%
    10:00 +15°C° 0.1 mm 1 m/s 740 mmHg 77%
    11:00 +15°C° 0.6 mm 1 m/s 740 mmHg 80%
    12:00 +14°C° 0.6 mm 1 m/s 739 mmHg 83%
    13:00 +14°C° 0.6 mm 1 m/s 739 mmHg 86%
    14:00 +14°C° 0.4 mm 2 m/s 739 mmHg 88%
    15:00 +14°C° 0.4 mm 2 m/s 739 mmHg 89%
    16:00 +13°C° 0.4 mm 2 m/s 739 mmHg 91%
    17:00 +13°C° 0.5 mm 2 m/s 739 mmHg 92%
    18:00 +12°C° 0.5 mm 2 m/s 739 mmHg 94%
    19:00 +10°C° 0.5 mm 2 m/s 739 mmHg 96%
    20:00 +10°C° 0.5 mm 2 m/s 739 mmHg 96%
    21:00 +9°C° 0.5 mm 3 m/s 739 mmHg 96%
    22:00 +9°C° 0.5 mm 3 m/s 740 mmHg 96%
    23:00 +9°C° 0.1 mm 3 m/s 740 mmHg 95%

    29 Maio, Quarta-feira

    Tempo Temperatura Precipitação Vento Pressão Humidade
    00:00 +8°C° 0.1 mm 3 m/s 740 mmHg 94%
    01:00 +8°C° 0.1 mm 2 m/s 740 mmHg 93%
    02:00 +8°C° 0 mm 2 m/s 740 mmHg 93%
    03:00 +8°C° 0 mm 2 m/s 740 mmHg 94%
    04:00 +8°C° 0 mm 2 m/s 740 mmHg 94%
    05:00 +8°C° 0 mm 3 m/s 741 mmHg 89%
    06:00 +8°C° 0 mm 4 m/s 741 mmHg 85%
    07:00 +10°C° 0 mm 4 m/s 742 mmHg 80%
    08:00 +11°C° 0 mm 4 m/s 742 mmHg 72%
    09:00 +12°C° 0 mm 5 m/s 743 mmHg 64%
    10:00 +13°C° 0 mm 5 m/s 743 mmHg 56%
    11:00 +13°C° 0 mm 5 m/s 744 mmHg 54%
    12:00 +14°C° 0 mm 5 m/s 744 mmHg 52%
    13:00 +14°C° 0 mm 5 m/s 744 mmHg 49%
    14:00 +14°C° 0 mm 5 m/s 745 mmHg 50%
    15:00 +13°C° 0 mm 5 m/s 745 mmHg 51%
    16:00 +13°C° 0 mm 5 m/s 745 mmHg 53%
    17:00 +12°C° 0 mm 5 m/s 746 mmHg 57%
    18:00 +11°C° 0 mm 4 m/s 746 mmHg 61%
    19:00 +10°C° 0 mm 4 m/s 746 mmHg 66%
    20:00 +8°C° 0 mm 3 m/s 747 mmHg 70%
    21:00 +7°C° 0 mm 3 m/s 747 mmHg 75%
    22:00 +5°C° 0 mm 3 m/s 748 mmHg 80%
    23:00 +5°C° 0 mm 3 m/s 748 mmHg 83%

    30 Maio, Quinta-feira

    Tempo Temperatura Precipitação Vento Pressão Humidade
    00:00 +5°C° 0 mm 2 m/s 748 mmHg 86%
    01:00 +5°C° 0 mm 2 m/s 748 mmHg 89%
    02:00 +4°C° 0 mm 2 m/s 749 mmHg 90%
    03:00 +4°C° 0 mm 2 m/s 749 mmHg 91%
    04:00 +5°C° 0 mm 1 m/s 749 mmHg 92%
    05:00 +6°C° 0 mm 2 m/s 750 mmHg 83%
    06:00 +8°C° 0 mm 2 m/s 750 mmHg 73%
    07:00 +10°C° 0 mm 2 m/s 750 mmHg 63%
    08:00 +12°C° 0 mm 2 m/s 751 mmHg 57%
    09:00 +14°C° 0 mm 2 m/s 751 mmHg 52%
    10:00 +15°C° 0 mm 2 m/s 751 mmHg 46%
    11:00 +16°C° 0 mm 2 m/s 751 mmHg 43%
    12:00 +17°C° 0 mm 2 m/s 750 mmHg 41%
    13:00 +18°C° 0 mm 3 m/s 750 mmHg 38%
    14:00 +18°C° 0 mm 3 m/s 750 mmHg 38%
    15:00 +18°C° 0 mm 3 m/s 749 mmHg 38%
    16:00 +18°C° 0 mm 3 m/s 749 mmHg 38%
    17:00 +17°C° 0 mm 3 m/s 748 mmHg 45%
    18:00 +16°C° 0 mm 3 m/s 748 mmHg 52%
    19:00 +15°C° 0 mm 2 m/s 747 mmHg 59%
    20:00 +13°C° 0 mm 3 m/s 747 mmHg 61%
    21:00 +12°C° 0 mm 4 m/s 747 mmHg 63%
    22:00 +11°C° 0 mm 4 m/s 746 mmHg 65%
    23:00 +11°C° 0 mm 4 m/s 746 mmHg 65%
    Mostrar mais